Wind from 088 at 10 knots gusting 16

Air temperature 25.6° C
Dewpoint 22.8° C

Last reported at 2014-Apr-18 09:45 UTC.
Time now 2014-Apr-18 10:48 UTC

Location: N 12°33' W 070°00'.
View on Google Maps.

See reports from other nearby stations

Tides Stations Pressure Air Temp Water Temp Dewpoint Dewpoint depression Visibility Wind Speed Wind Dir Waves Ship positions

  
sailing weather and tide predictions

DW5321 Paradera AW weather

date/time (UTC)wind fromknots sea level pressurealtimeterstation pressurevisibilityair tempwater tempwave heightnotes
2014-Apr-18 09:45 088 10 gusting 16 25.6
2014-Apr-18 09:30 084 8 gusting 15 25.6
2014-Apr-18 09:14 096 6 gusting 13 25.6
2014-Apr-18 09:00 099 6 gusting 16 25.6
2014-Apr-18 08:44 101 9 gusting 16 25.6
2014-Apr-18 08:30 102 10 gusting 15 25.6
2014-Apr-18 08:14 103 6 gusting 18 25.6
2014-Apr-18 08:00 073 9 gusting 14 25.6
2014-Apr-18 07:44 079 6 gusting 13 25.6
2014-Apr-18 07:30 101 7 gusting 15 25.6
2014-Apr-18 07:14 108 7 gusting 15 25.6
2014-Apr-18 06:58 104 7 gusting 13 25.6
2014-Apr-18 06:44 104 10 gusting 13 25.6
2014-Apr-18 06:28 092 8 gusting 14 25.6
2014-Apr-18 06:14 077 7 gusting 13 25.6
2014-Apr-18 05:59 060 6 gusting 12 25.6
2014-Apr-18 05:43 104 6 gusting 13 26.1
2014-Apr-18 05:28 108 7 gusting 13 25.6
2014-Apr-18 05:13 104 7 gusting 13 25.6
2014-Apr-18 04:58 079 6 gusting 13 25.6
2014-Apr-18 04:42 095 7 gusting 14 25.6
2014-Apr-18 04:28 114 7 gusting 12 26.1
2014-Apr-18 04:12 077 9 gusting 14 26.1
2014-Apr-18 03:57 064 9 gusting 15 26.1
2014-Apr-18 03:43 091 6 gusting 13 26.1
2014-Apr-18 03:27 089 6 gusting 13 26.1
2014-Apr-18 03:13 077 6 gusting 13 26.1
2014-Apr-18 02:57 092 6 gusting 14 26.1
2014-Apr-18 02:43 098 9 gusting 14 26.1
2014-Apr-18 02:27 036 7 gusting 14 26.1
2014-Apr-18 02:13 063 8 gusting 14 26.1
2014-Apr-18 01:57 090 9 gusting 18 26.1
2014-Apr-18 01:41 070 9 gusting 14 26.1
2014-Apr-18 01:27 074 9 gusting 17 26.1
2014-Apr-18 01:11 044 7 gusting 15 26.1
2014-Apr-18 00:56 078 9 gusting 13 26.1
2014-Apr-18 00:41 064 10 gusting 15 26.1
2014-Apr-18 00:27 049 9 gusting 16 26.1
2014-Apr-18 00:11 054 7 gusting 13 26.1
2014-Apr-17 23:56 114 6 gusting 13 26.1
2014-Apr-17 23:41 088 9 gusting 13 26.1
2014-Apr-17 23:26 069 6 gusting 12 26.1
2014-Apr-17 23:11 080 6 gusting 13 26.7
2014-Apr-17 22:56 104 7 gusting 13 26.7
2014-Apr-17 22:41 079 6 gusting 15 26.7
2014-Apr-17 22:25 127 6 gusting 12 27.2
2014-Apr-17 22:11 071 9 gusting 15 27.2
2014-Apr-17 21:55 091 9 gusting 13 27.2
2014-Apr-17 21:40 074 10 gusting 15 27.8
2014-Apr-17 21:25 082 6 gusting 16 27.8
2014-Apr-17 21:10 090 10 gusting 17 27.8
2014-Apr-17 20:56 110 10 gusting 16 27.8
2014-Apr-17 20:40 112 7 gusting 13 28.3
2014-Apr-17 20:24 065 12 gusting 18 28.3
2014-Apr-17 20:10 092 9 gusting 16 28.3
2014-Apr-17 19:55 069 9 gusting 18 28.3
2014-Apr-17 19:40 082 8 gusting 15 28.3
2014-Apr-17 19:24 082 9 gusting 19 28.3
2014-Apr-17 19:10 068 6 gusting 13 28.3
2014-Apr-17 18:54 113 13 gusting 20 28.3
2014-Apr-17 18:39 066 8 gusting 16 28.9
2014-Apr-17 18:24 079 7 gusting 17 28.3
2014-Apr-17 18:08 104 8 gusting 14 28.9
2014-Apr-17 17:53 064 9 gusting 17 28.3
2014-Apr-17 17:38 089 8 gusting 14 28.9
2014-Apr-17 17:23 063 10 gusting 17 28.9
2014-Apr-17 17:08 078 9 gusting 18 28.9
2014-Apr-17 16:53 060 9 gusting 15 29.4
2014-Apr-17 16:38 099 11 gusting 17 29.4
2014-Apr-17 16:23 079 12 gusting 19 28.9
2014-Apr-17 16:07 094 9 gusting 17 29.4
2014-Apr-17 15:51 094 10 gusting 20 28.9
2014-Apr-17 15:36 120 12 gusting 17 28.9
2014-Apr-17 15:21 131 8 gusting 15 28.9
2014-Apr-17 15:06 077 8 gusting 15 28.3
2014-Apr-17 14:50 109 7 gusting 13 27.8
2014-Apr-17 14:34 067 7 gusting 15 27.8
2014-Apr-17 14:20 082 10 gusting 15 27.8
2014-Apr-17 14:04 044 6 gusting 16 27.8
2014-Apr-17 13:49 070 7 gusting 15 28.3
2014-Apr-17 13:34 055 6 gusting 16 27.8
2014-Apr-17 13:19 113 9 gusting 18 27.8
2014-Apr-17 13:03 080 8 gusting 13 27.2
2014-Apr-17 12:48 101 9 gusting 13 27.2
2014-Apr-17 12:33 082 6 gusting 15 27.2
2014-Apr-17 12:18 079 8 gusting 13 26.7
2014-Apr-17 12:02 094 6 gusting 12 26.7
2014-Apr-17 11:47 106 7 gusting 11 26.1
2014-Apr-17 11:31 063 6 gusting 11 26.1
2014-Apr-17 11:16 077 6 gusting 9 25.6
2014-Apr-17 11:01 110 6 gusting 10 25.6
2014-Apr-17 10:46 079 6 gusting 10 25.0
2014-Apr-17 10:31 073 5 gusting 9 25.6
2014-Apr-17 10:16 064 5 gusting 9 25.6
2014-Apr-17 10:01 068 4 gusting 9 25.0
2014-Apr-17 09:44 093 6 gusting 10 25.0
2014-Apr-17 09:29 090 5 gusting 10 25.0
2014-Apr-17 09:14 084 6 gusting 11 25.0
2014-Apr-17 08:59 077 6 gusting 10 25.0
2014-Apr-17 08:44 058 2 gusting 6 24.4
2014-Apr-17 08:28 120 4 gusting 6 23.9
2014-Apr-17 08:13 112 7 gusting 12 23.9
2014-Apr-17 07:58 101 5 gusting 8 25.0
2014-Apr-17 07:42 077 6 gusting 11 25.0
2014-Apr-17 07:27 079 4 gusting 11 25.6
2014-Apr-17 07:13 073 5 gusting 13 25.6
2014-Apr-17 06:58 100 8 gusting 12 25.6
2014-Apr-17 06:42 079 3 gusting 7 25.6
2014-Apr-17 06:26 088 5 gusting 11 25.6
2014-Apr-17 06:10 084 6 gusting 12 25.6
2014-Apr-17 05:55 091 8 gusting 13 25.6
2014-Apr-17 05:41 031 6 gusting 11 25.6
2014-Apr-17 05:26 058 4 gusting 10 25.6
2014-Apr-17 05:11 051 5 gusting 10 25.6
2014-Apr-17 04:54 078 4 gusting 9 25.6
2014-Apr-17 04:39 077 6 gusting 11 25.6
2014-Apr-17 04:24 088 5 gusting 10 25.6
2014-Apr-17 04:09 098 6 gusting 11 25.6
2014-Apr-17 03:54 051 6 gusting 12 25.6
2014-Apr-17 03:38 108 6 gusting 11 26.1
2014-Apr-17 03:08 108 6 gusting 11 26.1
2014-Apr-17 02:53 101 6 gusting 12 26.1
2014-Apr-17 02:37 065 6 gusting 10 26.1
2014-Apr-17 02:23 070 5 gusting 8 26.1
2014-Apr-17 02:07 101 6 gusting 13 26.1
2014-Apr-17 01:52 101 6 gusting 13 26.1
2014-Apr-17 01:36 104 7 gusting 13 26.1
2014-Apr-17 01:22 088 6 gusting 12 26.1
2014-Apr-17 01:06 120 6 gusting 13 26.1
2014-Apr-17 00:51 132 8 gusting 14 26.1
2014-Apr-17 00:36 036 5 gusting 12 26.1
2014-Apr-17 00:20 079 5 gusting 11 26.1
2014-Apr-17 00:04 084 5 gusting 12 26.1
2014-Apr-16 23:49 044 7 gusting 13 26.1
2014-Apr-16 23:34 075 6 gusting 11 26.1
2014-Apr-16 23:19 075 6 gusting 13 26.1
2014-Apr-16 23:04 070 6 gusting 13 26.1
2014-Apr-16 22:48 053 6 gusting 13 26.7
2014-Apr-16 22:33 089 9 gusting 14 26.7
2014-Apr-16 22:18 089 6 gusting 13 26.7
2014-Apr-16 22:03 098 8 gusting 14 26.7
2014-Apr-16 21:48 108 8 gusting 19 27.2
2014-Apr-16 21:33 077 8 gusting 15 27.2
2014-Apr-16 21:02 112 8 gusting 15 27.2
2014-Apr-16 20:46 106 8 gusting 15 27.8
2014-Apr-16 20:31 098 12 gusting 17 27.8
2014-Apr-16 20:16 046 8 gusting 17 27.8
2014-Apr-16 20:01 073 9 gusting 15 28.3
2014-Apr-16 19:46 075 11 gusting 17 28.3
2014-Apr-16 19:31 100 11 gusting 19 28.3
2014-Apr-16 19:16 073 11 gusting 15 28.9
2014-Apr-16 18:59 083 11 gusting 16 28.9
2014-Apr-16 18:44 077 12 gusting 18 28.9
2014-Apr-16 18:29 126 12 gusting 17 28.3
2014-Apr-16 18:14 081 9 gusting 16 28.9
2014-Apr-16 17:59 093 11 gusting 17 28.9
2014-Apr-16 17:44 115 11 gusting 19 28.9
2014-Apr-16 17:28 356 10 gusting 17 28.9
2014-Apr-16 17:13 037 10 gusting 19 28.9
2014-Apr-16 16:58 094 9 gusting 16 28.9
2014-Apr-16 16:42 064 10 gusting 18 28.9
2014-Apr-16 16:28 110 9 gusting 16 28.9
2014-Apr-16 16:11 132 10 gusting 17 28.9
2014-Apr-16 15:58 044 9 gusting 18 28.9
2014-Apr-16 15:41 345 9 gusting 14 28.9
2014-Apr-16 15:26 117 10 gusting 19 28.9
2014-Apr-16 15:10 110 8 gusting 15 28.9
2014-Apr-16 14:56 105 10 gusting 14 28.3
2014-Apr-16 14:41 103 9 gusting 16 28.3
2014-Apr-16 14:26 046 9 gusting 13 28.3
2014-Apr-16 14:09 096 6 gusting 12 28.3
2014-Apr-16 13:54 053 10 gusting 14 27.8
2014-Apr-16 13:39 074 8 gusting 15 27.8
2014-Apr-16 13:24 106 7 gusting 14 27.8
2014-Apr-16 13:10 098 10 gusting 17 27.8
2014-Apr-16 12:54 129 10 gusting 16 27.2
2014-Apr-16 12:38 082 7 gusting 16 27.2
2014-Apr-16 12:23 062 6 gusting 11 26.7
2014-Apr-16 12:08 106 8 gusting 13 26.7
2014-Apr-16 11:53 089 5 gusting 12 26.7
2014-Apr-16 11:38 095 7 26.1
2014-Apr-16 11:21 077 6 gusting 12 26.1
2014-Apr-16 11:07 109 6 gusting 11 25.6
2014-Apr-16 10:52 088 6 gusting 10 25.6
2014-Apr-16 10:36 027 6 gusting 12 25.6
2014-Apr-16 10:21 099 6 gusting 10 25.6